Weather History for KSTS - February, 2014

Change the Weather History Date:

Friday, February 7, 2014

  Actual Average Record
Temperature  
Mean Temperature 51 °F 49 °F  
Max Temperature 54 °F 59 °F 77 °F (2011)
Min Temperature 47 °F 38 °F 33 °F (2008)
Degree Days  
Heating Degree Days 14    
Month to date heating degree days 146  
Since 1 July heating degree days 1718  
Cooling Degree Days 0    
Month to date cooling degree days 0  
Year to date cooling degree days 0  
Moisture  
Dew Point 49 °F    
Average Humidity 97    
Maximum Humidity 100    
Minimum Humidity 93    
Precipitation  
Precipitation 1.42 in 0.20 in 1.42 in (2014)
Month to date precipitation 2.89 1.44  
Year to date precipitation 2.99 8.49  
Since 1 July precipitation 5.01  
Sea Level Pressure  
Sea Level Pressure 29.99 in    
Wind  
Wind Speed 7 mph (SSE)    
Max Wind Speed 17 mph    
Max Gust Speed 23 mph    
Visibility 4 miles    
Events Fog , Rain    
T = Trace of Precipitation, MM = Missing Value Source: NWS Daily Summary

Daily Weather History Graph

Daily Weather History Graph

Search for Another Location

Airport or City:

Trip Planner

Search our weather history database for the weather conditions in past years. The results will help you decide how hot, cold, wet, or windy it might be!

Date:

Astronomy

Feb. 07, 2014 Rise Set
Actual Time 7:10 AM PST 5:40 PM PST
Civil Twilight 6:43 AM PST 6:08 PM PST
Nautical Twilight 6:11 AM PST 6:39 PM PST
Astronomical Twilight 5:40 AM PST 7:10 PM PST
Moon 11:56 AM PST (2/7) 1:31 AM PST (2/7)
Length of Visible Light 11h 24m
Length of Day
10h 29m
First Quarter, 60% of the Moon is Illuminated
Feb 7
First Quarter
Feb 14
Full
Feb 22
Last Quarter
Mar 1
New
Mar 8
First Quarter

Hourly Weather History & Observations

Time (PST) Temp. Dew Point Humidity Pressure Visibility Wind Dir Wind Speed Gust Speed Precip Events Conditions
12:18 AM 48.0 °F 48.0 °F 100% 29.98 in 4.0 mi SE 3.5 mph - N/A   Overcast
12:48 AM 48.2 °F 48.2 °F 100% 29.98 in 3.0 mi Calm Calm - N/A   Overcast
12:53 AM 48.0 °F 46.9 °F 96% 29.97 in 3.0 mi Calm Calm - N/A   Overcast
1:05 AM 48.0 °F 46.9 °F 96% 29.99 in 2.0 mi Calm Calm - N/A   Overcast
1:30 AM 48.0 °F 46.9 °F 96% 29.99 in 2.0 mi Calm Calm - N/A   Overcast
1:53 AM 48.0 °F 46.9 °F 96% 29.99 in 2.5 mi Calm Calm - 0.00 in Rain Light Rain
2:14 AM 48.0 °F 46.9 °F 96% 30.00 in 1.8 mi Calm Calm - 0.01 in Rain Light Rain
2:22 AM 48.0 °F 48.0 °F 100% 30.00 in 1.5 mi Calm Calm - 0.02 in Rain Light Rain
2:35 AM 48.0 °F 46.9 °F 96% 30.00 in 1.2 mi Calm Calm - 0.03 in Rain Light Rain
2:50 AM 48.2 °F 48.2 °F 100% 30.01 in 2.0 mi Calm Calm - 0.03 in   Overcast
2:53 AM 48.0 °F 48.0 °F 100% 29.99 in 1.8 mi Calm Calm - 0.03 in Rain Light Rain
3:10 AM 48.0 °F 46.9 °F 96% 30.01 in 1.5 mi Calm Calm - 0.00 in Rain Light Rain
3:35 AM 46.9 °F 46.9 °F 100% 30.00 in 0.5 mi SSE 4.6 mph - 0.00 in Fog Fog
3:53 AM 48.0 °F 46.9 °F 96% 29.99 in 1.5 mi SE 3.5 mph - 0.00 in   Overcast
4:06 AM 48.0 °F 48.0 °F 100% 30.01 in 2.5 mi Calm Calm - N/A   Overcast
4:22 AM 48.0 °F 46.9 °F 96% 30.00 in 4.0 mi ESE 4.6 mph - N/A   Overcast
4:33 AM 48.0 °F 48.0 °F 100% 30.00 in 5.0 mi ESE 4.6 mph - N/A   Overcast
4:53 AM 48.0 °F 48.0 °F 100% 29.98 in 6.0 mi ESE 5.8 mph - N/A   Mostly Cloudy
5:53 AM 48.0 °F 48.0 °F 100% 29.98 in 6.0 mi SE 3.5 mph - N/A   Overcast
6:03 AM 48.0 °F 48.0 °F 100% 29.99 in 6.0 mi ESE 3.5 mph - N/A   Overcast
6:53 AM 48.9 °F 48.0 °F 97% 29.99 in 5.0 mi South 3.5 mph - 0.02 in   Overcast
7:21 AM 48.9 °F 48.0 °F 97% 30.00 in 10.0 mi SE 6.9 mph - N/A   Overcast
7:53 AM 48.9 °F 48.0 °F 97% 30.00 in 10.0 mi SSE 4.6 mph - N/A   Overcast
8:09 AM 50.0 °F 48.0 °F 93% 30.02 in 10.0 mi SSW 4.6 mph - 0.00 in Rain Light Rain
8:20 AM 48.9 °F 48.9 °F 100% 30.03 in 6.0 mi South 4.6 mph - 0.00 in Rain Light Rain
8:53 AM 48.9 °F 48.9 °F 100% 30.01 in 3.0 mi SSE 5.8 mph - 0.03 in Rain Light Rain
9:02 AM 48.9 °F 48.9 °F 100% 30.03 in 8.0 mi SSE 5.8 mph - 0.01 in Rain Light Rain
9:50 AM 50.0 °F 48.2 °F 94% 30.05 in 6.0 mi SSE 9.2 mph - 0.03 in Rain Light Rain
9:53 AM 50.0 °F 48.9 °F 96% 30.03 in 6.0 mi SSE 9.2 mph - 0.03 in Rain Light Rain
10:24 AM 50.0 °F 48.9 °F 96% 30.05 in 5.0 mi SSE 6.9 mph - 0.03 in Rain Light Rain
10:53 AM 51.1 °F 50.0 °F 96% 30.03 in 5.0 mi SSE 6.9 mph - 0.04 in Rain Light Rain
11:14 AM 51.1 °F 50.0 °F 96% 30.04 in 10.0 mi SSE 9.2 mph - 0.01 in Rain Light Rain
11:53 AM 52.0 °F 50.0 °F 93% 30.01 in 5.0 mi South 12.7 mph 23.0 mph 0.02 in Rain Light Rain
12:00 PM 52.0 °F 50.0 °F 93% 30.02 in 5.0 mi South 12.7 mph - 0.01 in Rain Light Rain
12:53 PM 52.0 °F 51.1 °F 97% 29.97 in 5.0 mi SSE 10.4 mph - 0.05 in Rain Light Rain
1:01 PM 52.0 °F 50.0 °F 93% 29.98 in 5.0 mi South 9.2 mph - 0.01 in Rain Light Rain
1:53 PM 52.0 °F 51.1 °F 97% 29.97 in 3.0 mi SSE 6.9 mph - 0.11 in Rain Rain
2:19 PM 51.1 °F 51.1 °F 100% 29.97 in 1.8 mi SSE 10.4 mph - 0.07 in Rain Rain
2:28 PM 51.1 °F 51.1 °F 100% 29.97 in 2.5 mi South 9.2 mph - 0.09 in Rain Light Rain
2:35 PM 51.1 °F 51.1 °F 100% 29.97 in 1.5 mi SSE 9.2 mph - 0.11 in Rain Rain
2:53 PM 52.0 °F 51.1 °F 97% 29.95 in 1.5 mi SSE 8.1 mph - 0.14 in Rain Light Rain
3:00 PM 52.0 °F 51.1 °F 97% 29.97 in 1.5 mi South 9.2 mph - 0.00 in Rain Light Rain
3:53 PM 51.1 °F 50.0 °F 96% 29.94 in 1.2 mi South 11.5 mph - 0.12 in Rain Rain
4:53 PM 51.1 °F 51.1 °F 100% 29.93 in 1.2 mi SSE 10.4 mph - 0.13 in Rain Rain
5:53 PM 51.1 °F 51.1 °F 100% 29.94 in 1.5 mi SE 10.4 mph - 0.16 in Rain Rain
6:53 PM 51.1 °F 51.1 °F 100% 29.95 in 1.5 mi SE 8.1 mph - 0.21 in Rain Rain
6:56 PM 51.1 °F 51.1 °F 100% 29.97 in 3.0 mi SE 8.1 mph - 0.01 in Rain Rain
7:01 PM 52.0 °F 51.1 °F 97% 29.97 in 1.5 mi SSE 5.8 mph - 0.05 in Rain Heavy Rain
7:53 PM 52.0 °F 51.1 °F 97% 29.97 in 1.5 mi SE 9.2 mph - 0.21 in Rain Rain
7:58 PM 52.0 °F 51.1 °F 97% 29.99 in 3.0 mi SSE 6.9 mph - 0.01 in Rain Rain
8:21 PM 53.1 °F 52.0 °F 96% 29.99 in 4.0 mi South 11.5 mph - 0.02 in Rain Light Rain
8:32 PM 53.1 °F 52.0 °F 96% 29.99 in 4.0 mi South 6.9 mph - 0.03 in Rain Light Rain
8:53 PM 53.1 °F 52.0 °F 96% 29.98 in 3.0 mi South 8.1 mph - 0.04 in Rain Light Rain
9:53 PM 53.1 °F 53.1 °F 100% 30.00 in 3.0 mi South 5.8 mph - 0.05 in Rain Light Rain
10:53 PM 53.1 °F 53.1 °F 100% 30.00 in 7.0 mi South 9.2 mph - 0.01 in Rain Light Rain
11:04 PM 53.1 °F 53.1 °F 100% 30.02 in 6.0 mi South 10.4 mph - 0.00 in Rain Light Rain
11:18 PM 53.1 °F 53.1 °F 100% 30.02 in 5.0 mi South 8.1 mph - 0.01 in Rain Light Rain
11:53 PM 54.0 °F 53.1 °F 97% 30.01 in 4.0 mi South 8.1 mph - 0.01 in Rain Light Rain